Погода Бузаубай

Погода Бузаубай : погода сейчас, прогноз погоды и архив. Всё, что Вы хотите узнать о погоде Бузаубай!

Хотите узнать прогноз погоды Бузаубай? Тогда Вам сюда: Погода Бузаубай

Поиск расширенной информации на нашем сайте:

Другие новости

Новости СМИ2

Главная страница сайта

Новости сайта

03.07.2017

Напоминаем, что на нашем специализированном сайте Метеоцентр.Азия вы можете получить высокодетализированные автоматические прогнозы погоды по пунктам России, СНГ и мира в авиационном формате (включающие направление и скорость ветра, видимость, явления погоды, количество и форму облачности, нижнюю и верхнюю границу облачности).


Погода Бузаубай - сегодня

Время (UTC), дата Ветер
(°,м/с) 
Видим.   Явления Облачность Т
(°С)
Тd
(°С)
f(%) Тe
(°С)
Pmin
(гПа)
dP
(гПа)
Po
(мм)
O2
(г/м3)
Тmin Tmax R s Состояние
почвы
09 13.01.18 020 (С) 10 км    5/0 верхняя 
[Ci ing]
+4.2 -9.3 37 +2  1018.6  0.1  755  300           
12 13.01.18 010 (С) 10 км    3/0 верхняя 
[Ci fib]
+3.5 -11.3 33 +2  1018.8  0.1  755  301           
15 13.01.18 010 (С) н/о    8/0 средняя 
[Ac As]
-0.2 -12.6 39 -3  1022.1  -3.2  757  306    +4.4       
18 13.01.18 010 (С) н/о    6/0 средняя 
[Ac As]
-1.7 -12.3 44 -4  1024.1  1.9  759  309    +4.4       
21 13.01.18 010 (С) н/о    10/0 средняя 
[Ac As]
-1.4 -12 44 -2  1024.5  0.4  759  309           
00 14.01.18 040 (СВ) н/о    10/10 1000 м 
[Sc]
-1.6 -10.5 51 -3  1024.9  0.4  759  309           
03 14.01.18 010 (С) 10 км    10/10 1000 м 
[Sc]
-2 -10.1 54 -1  1026.1  1.1  760  310           
06 14.01.18 010 (С) 10 км    9/9 1000 м 
[Sc]
-1 -11.1 46 1026.2  0.2  760  309  -2         
09 14.01.18 020 (С) 10 км    9/8 1000 м 
[Sc]
-0.4 -12.3 40 1026.1  -0.1  760  308           
12 14.01.18 030 (СВ) 10 км    10/10 1000 м 
[Sc]
-0.2 -13.2 37 1026  -0.1  760  308           
15 14.01.18 360 (С) н/о    10/10 1000 м 
[Sc]
-1.5 -13.1 41 -2  1026.5  0.5  761  309    -0.2       
18 14.01.18 010 (С) н/о    10/10 1000 м 
[Sc]
-2.2 -12.5 45 -5  1026.7  0.1  761  310    -0.2       
21 14.01.18 010 (С) н/о    10/10 1000 м 
[Sc]
-2.8 -12.4 48 -6  1026.8  0.1  761  311           
00 15.01.18 020 (С) н/о    10/10 1000 м 
[Sc]
-3.7 -11.6 54 -7  1026.9  0.1  761  312           
03 15.01.18 010 (С) 10 км    8/8 1000 м 
[Sc]
-5.5 -12.6 57 -9  1027.1  0.1  761  314           
06 15.01.18 040 (СВ) 10 км    4/0 средняя 
[Ac cast]
-4.2 -13.5 48 -7  1027.5  0.4  761  313  -5.5         
09 15.01.18 030 (СВ) 10 км    10/0 верхняя 
[Ci ing]
-1.8 -12.5 44 -4  1027.8  0.5  761  310           
12 15.01.18 040 (СВ) 10 км    10/0 средняя 
[Ac As]
-0.2 -12.6 39 -2  1026.4  -1.4  760  308           
15 15.01.18 360 (С) н/о    10/0 средняя 
[Ac As]
-3.7 -14.6 42 -7  1027.4  0.9  761  312    -0.2       
18 15.01.18 360 (С) н/о    ясно 
-6.6 -16.2 46 -10  1029.2  1.6  762  316    -0.2       
21 15.01.18 010 (С) н/о    ясно 
-10 -18.5 50 -12  1029.8  0.4  763  320           
00 16.01.18 360 (С) н/о    ясно 
-11.6 -18.8 55 -15  1029.1  -0.7  762  322           
03 16.01.18 010 (С) 10 км    3/0 средняя 
[Ac lent]
-13 -19.1 60 -15  1028.6  -0.6  762  324          замёрзшая 
06 16.01.18 тихо ()   10 км    ясно 
-7.1 -15.8 50 -7  1029.3  762  317  -13         
09 16.01.18 360 (С) 10 км    ясно 
-2.6 -12.6 46 -2  1027.4  -1.7  761  311           
Время (UTC), дата Ветер
(°,м/с) 
Видим.   Явления Облачность Т
(°С)
Тd
(°С)
f(%) Тe
(°С)
Pmin
(гПа)
dP
(гПа)
Po
(мм)
O2
(г/м3)
Тmin Tmax R s Состояние
почвы

Для получения пояснительной информации подведите курсор к названию столбца.

ПОГОДА Бузаубай - архив

Всё, что Вы хотите узнать о погоде Бузаубай - удобно и подробно!

Выберите нужную дату (начиная с 1 января 2015* года) и нажмите кнопку "Найти".
Будут отображены архивные сводки погоды по пункту Бузаубай, начиная с указанной даты.


Отображать данные в формате CSV (для использования в таблицах Excel)


Внимание! Наш архив погоды предназначен исключительно для личного некоммерческого использования в познавательных целях. Если Вам необходимы официальные справки о состоянии погоды (для производственных, юридических, коммерческих и т.п. целей), обращайтесь в органы Росгидромета.

*Примечание: данная дата относится к архиву по метеостанциям СССР (Россия, СНГ, Балтия).
Архив по метеостанциям Зарубежной Европы и Азии (кроме Китая) хранится 10 дней, по другим регионам земного шара (Китай, Африка, Америка, Австралия, Океания) - 1 день.

Бузаубай - район местоположения метеостанции


Название, широта, долгота, высота метеостанции:
Бузаубай 41.8°ш. 62.5°д. 98 м над ур. моря [Узбекистан]

Дополнительная информация

В oтличие oт бoльшинства пoгoдных сайтoв мы публикуем пoдрoбную метеoинфoрмацию в детальнoм прoфессиoнальнoм фoрмате.

Характеристики температуры и влажнoсти вoздуха измеряются на высoте 2 м в тени вдали oт зданий и деревьев.
Скoрoсть ветра измеряется на высoте 10 м (на урoвне рoста челoвека скoрoсть ветра ниже в 1.5-2 раза). Если метеoстанция нахoдится в гoрoде или в лесу, тo скoрoсть ветра занижена на 2-4 м/с пo сравнению с oткрытым местoм. Скoрoсть ветра над акватoриями крупных рек и oзёр, а также на вершинах хoлмoв на 2-5 м/с выше, чем в oбычных услoвиях.
Атмoсфернoе давление в разных тoчках местнoсти мoжет значительнo oтличаться oт давления на метеoстанции, в зависимoсти oт услoвий рельефа (при пoдъёме на 10 м давление пoнижается примернo на 1 мм рт.ст.).